Wind_Speed
25 25 25 25 24 25 25 25 25 24 23 22 22 21 21 20 18 17 17 17 17 16 15 13 12 12 12 12 12 12 12 11 10 10 10 11 11 11 11 11 11 11 11 11
25 26 26 26 25 25 25 25 25 24 23 22 23 22 22 21 20 19 19 18 17 16 16 16 14 13 12 12 13 12 12 11 11 11 11 12 13 13 13 13 13 13 13 13
25 25 26 27 26 26 25 25 25 23 22 23 23 22 22 22 21 21 20 19 18 16 15 15 15 15 15 14 14 14 13 13 12 12 13 13 13 14 14 14 14 14 15 15
27 27 28 25 25 26 26 25 24 22 22 22 23 24 23 22 21 20 20 20 19 18 17 16 16 16 16 16 15 15 15 15 14 14 14 14 15 15 16 16 16 16 16 16
28 29 28 27 26 26 27 26 25 24 22 22 23 24 24 23 21 20 20 20 20 19 18 18 17 17 17 16 16 16 16 15 15 15 15 16 16 16 16 17 17 18 19 18
28 29 29 27 27 26 26 26 24 23 22 22 22 23 23 22 22 21 21 21 20 20 19 19 18 18 18 17 17 17 16 16 16 16 16 17 17 17 17 17 18 19 19 19
28 28 28 26 26 25 26 25 24 23 22 22 22 22 22 22 23 22 22 21 21 20 20 19 19 18 17 18 18 18 18 18 18 18 17 17 18 18 18 18 19 19 20 20
27 27 27 26 26 26 26 24 24 23 22 22 21 22 22 22 23 23 23 22 22 21 21 21 20 19 18 19 19 20 20 20 19 19 18 18 18 19 19 19 20 19 20 20
26 26 26 26 26 25 24 23 23 22 22 22 22 22 22 22 22 22 22 22 22 22 21 22 21 20 20 20 21 21 20 20 20 20 20 19 19 19 19 19 19 20 20 21
23 23 25 26 26 25 24 24 23 23 22 22 21 21 21 21 22 22 22 23 22 22 21 21 21 22 22 22 22 22 21 21 21 21 21 21 21 21 21 21 21 22 22 23
22 21 22 24 24 24 24 25 24 23 22 22 21 20 21 21 21 21 21 22 22 23 23 23 22 22 22 22 22 22 22 22 22 22 22 22 22 22 22 22 23 22 22 22
21 21 22 22 22 22 23 23 23 22 21 21 20 20 21 22 22 22 21 22 23 23 24 23 23 23 23 23 23 22 22 23 23 23 22 23 23 23 22 22 23 23 22 22
20 20 20 20 21 21 21 21 21 21 21 21 20 20 21 21 21 22 21 22 22 22 23 23 23 23 23 23 22 22 22 22 22 22 22 22 22 22 23 23 23 23 22 23
17 18 18 18 19 20 19 19 19 19 20 20 19 20 20 20 20 21 21 20 20 20 20 21 21 21 21 21 21 22 22 22 22 22 22 22 23 23 23 23 22 22 23 23
16 16 16 16 17 17 17 18 18 18 19 19 19 19 20 19 19 18 18 18 18 18 19 20 20 21 21 21 21 22 22 22 22 22 22 22 22 22 22 22 22 22 22 22
15 14 14 15 16 16 16 16 16 17 18 18 18 18 18 19 19 18 18 18 19 19 20 20 20 21 22 22 21 21 22 22 21 21 21 21 21 20 20 20 21 21 21 21
15 15 15 14 15 15 15 15 15 16 17 17 17 17 17 18 18 19 19 20 20 20 20 21 21 21 21 22 22 22 22 22 21 20 20 20 19 19 18 18 19 19 19 19
15 15 14 14 14 14 15 15 15 15 16 17 17 17 17 17 17 17 18 19 20 20 21 21 21 21 21 21 21 21 21 21 20 20 20 20 19 19 18 18 18 18 18 18
15 15 14 14 14 15 14 14 14 15 16 16 17 17 16 16 17 18 19 20 20 20 20 21 21 21 21 21 21 21 21 21 20 20 20 20 19 19 18 18 18 18 18 18
14 14 14 14 14 15 14 14 14 14 14 14 15 16 17 16 17 17 18 18 18 19 19 19 19 20 21 21 21 21 21 20 20 19 19 19 19 19 18 18 18 18 18 19
14 14 14 14 15 15 15 14 14 15 15 15 15 16 16 16 16 17 17 17 17 16 17 17 18 19 19 20 20 20 19 19 19 19 19 19 19 20 20 20 19 19 19 19
14 14 14 14 14 15 15 15 15 16 16 16 15 15 16 16 17 16 16 17 17 17 16 16 17 17 18 18 18 18 17 18 18 19 19 20 20 20 20 20 20 20 20 20
14 15 15 15 15 16 16 15 16 16 16 15 15 15 16 16 16 16 16 17 17 16 16 16 16 16 16 16 17 17 18 19 19 19 20 20 20 20 20 20 20 20 20 21
13 14 15 15 15 15 15 15 15 15 15 15 15 15 16 16 16 16 16 17 17 16 16 16 16 16 16 16 16 17 18 18 19 19 20 21 21 21 21 21 21 21 21 22
13 14 14 14 14 14 14 14 14 14 15 15 15 16 16 16 17 17 17 17 18 17 17 16 16 16 16 16 17 17 18 19 19 19 19 20 20 21 21 22 22 22 22 23
12 13 14 14 15 15 14 14 15 15 15 15 15 16 16 16 16 17 17 18 18 18 17 17 17 16 17 17 17 18 18 19 19 20 20 20 20 20 21 22 22 22 22 22
13 13 14 15 15 15 15 15 15 16 16 16 16 16 16 17 17 17 18 18 18 17 17 18 18 18 18 18 18 18 18 19 19 19 19 19 19 20 20 21 21 21 21 21
Wind_Direction
242 244 246 246 247 251 254 256 260 265 265 264 264 265 266 268 270 270 271 268 264 262 262 262 262 255 255 257 256 257 260 263 262 262 262 261 261 259 260 264 268 274 282 284
242 245 247 246 247 251 254 257 259 262 263 264 261 261 262 265 268 269 269 265 263 264 258 256 255 249 249 252 254 254 257 261 262 261 261 261 262 261 262 264 266 271 277 281
244 246 247 248 249 252 253 255 259 259 259 261 258 259 262 263 265 266 266 264 265 266 261 258 256 255 254 250 250 251 253 257 260 260 262 262 262 261 263 265 267 270 273 276
248 247 249 249 249 251 252 255 257 260 258 258 257 257 259 261 263 262 262 261 261 262 260 259 258 259 255 250 250 254 256 258 261 265 264 263 262 263 264 266 269 270 274 276
249 250 251 248 249 251 252 255 258 261 259 257 256 256 257 259 260 259 260 261 260 260 259 259 260 259 256 253 254 259 261 260 263 266 266 267 266 265 264 265 268 269 273 276
249 251 251 249 250 252 254 257 260 262 262 259 256 254 255 256 257 257 258 260 260 258 258 258 259 258 257 257 257 261 262 263 265 268 270 270 269 269 268 267 269 270 272 275
248 250 250 249 249 252 255 258 258 259 261 261 259 256 255 255 253 253 256 257 258 257 256 256 257 258 258 257 258 259 260 263 265 268 270 271 271 271 269 270 271 272 272 274
247 249 250 250 252 254 255 257 256 257 258 258 257 256 255 253 252 253 253 254 255 256 256 257 257 257 258 258 258 258 260 263 265 267 271 271 272 271 269 272 273 271 272 275
247 249 250 252 253 255 256 255 254 256 256 255 254 254 255 255 255 257 257 256 256 256 256 256 256 256 259 260 259 259 261 264 266 268 271 272 272 271 270 271 272 272 274 275
246 248 246 249 251 255 256 255 254 255 254 252 251 250 250 252 256 259 259 257 255 254 256 256 256 257 259 259 258 260 262 265 267 268 270 271 272 273 273 272 273 273 274 275
246 247 246 247 250 254 255 254 254 252 252 249 248 249 250 253 255 255 255 255 254 253 254 256 257 257 257 258 258 260 263 266 267 269 271 271 272 274 274 275 275 274 275 274
247 248 250 250 250 254 254 252 250 250 249 247 248 248 249 249 251 252 253 252 252 253 253 256 258 258 258 259 260 262 263 265 267 269 270 269 271 272 273 274 276 276 276 275
249 249 251 251 250 253 252 251 249 248 248 247 249 249 251 252 253 255 256 257 256 255 254 256 259 260 259 259 261 263 264 266 268 269 271 271 273 273 273 274 276 276 275 275
252 253 252 251 248 250 251 251 252 252 250 248 251 250 251 253 255 257 257 258 258 256 255 256 258 260 261 261 262 264 266 268 270 271 272 273 274 273 273 273 274 276 276 276
251 252 251 249 246 249 250 251 253 255 254 251 253 254 252 252 255 255 256 257 256 255 254 256 259 261 262 264 265 265 266 268 270 272 273 274 274 273 272 272 274 276 277 278
249 252 253 252 251 252 252 254 255 255 254 252 254 255 253 252 254 257 258 258 256 256 255 255 258 260 262 265 266 265 265 267 269 271 272 273 274 274 273 272 272 274 277 277
247 249 251 255 255 254 255 256 255 253 251 252 253 255 257 258 258 258 258 259 259 259 257 257 259 260 261 262 265 267 267 266 267 270 272 273 274 274 273 271 271 273 276 277
249 250 251 253 252 254 256 255 255 251 253 251 252 256 256 260 262 261 262 265 263 261 260 260 259 259 262 262 263 266 267 265 265 268 271 272 271 271 272 272 272 273 275 277
248 247 250 256 255 254 255 255 254 252 250 252 253 254 257 260 262 264 267 267 265 263 263 263 262 262 263 264 263 264 266 265 265 267 268 270 270 270 271 271 272 273 275 278
248 252 253 256 257 257 259 260 260 257 255 255 257 259 260 260 263 265 267 269 269 268 265 263 262 261 263 263 263 263 264 263 262 263 265 267 268 269 270 270 272 274 276 279
251 253 255 257 258 257 258 259 259 258 257 258 260 261 262 263 263 265 265 268 269 270 268 266 265 264 263 262 263 263 262 260 262 264 265 266 267 268 269 270 271 273 276 280
255 254 256 259 262 261 259 258 258 257 256 256 257 259 261 261 261 262 264 267 267 268 269 268 267 266 264 263 263 262 260 261 264 266 266 265 265 267 268 269 271 273 276 278
254 253 255 259 261 261 260 261 261 258 257 257 258 258 258 258 260 263 265 265 266 267 268 267 265 265 264 262 261 262 263 264 266 266 266 265 265 266 267 268 270 274 276 278
256 255 258 260 261 261 262 264 263 261 259 259 261 261 261 262 262 261 263 264 264 266 268 267 265 266 265 264 264 266 267 266 267 267 267 266 266 266 268 269 271 273 275 277
263 261 261 259 259 260 262 264 265 264 261 261 264 264 263 265 267 266 266 265 264 264 265 265 266 268 269 267 266 268 269 269 269 269 271 270 270 269 269 270 272 274 275 276
266 265 261 259 258 261 263 263 264 263 263 265 266 264 262 264 267 266 265 263 264 263 262 262 264 267 270 270 270 271 271 270 268 268 270 272 272 272 272 273 274 275 275 276
264 263 261 260 260 261 262 262 262 262 262 265 266 266 266 267 267 266 266 267 264 261 262 262 264 267 269 270 269 270 271 269 268 269 271 273 274 275 274 273 273 274 274 275
Height
5766 5769 5771 5772 5775 5776 5777 5778 5780 5781 5783 5784 5785 5785 5786 5787 5788 5788 5788 5789 5789 5789 5789 5790 5791 5792 5792 5793 5793 5794 5794 5794 5795 5795 5796 5796 5796 5797 5797 5797 5797 5797 5797 5796
5760 5762 5764 5766 5768 5770 5772 5773 5774 5775 5777 5778 5779 5780 5781 5782 5783 5784 5784 5785 5785 5785 5786 5786 5787 5788 5789 5789 5790 5791 5791 5792 5792 5792 5793 5793 5793 5793 5793 5794 5794 5793 5793 5793
5754 5756 5758 5760 5762 5764 5765 5767 5768 5769 5772 5772 5773 5775 5776 5777 5778 5779 5780 5780 5781 5781 5781 5782 5783 5784 5785 5786 5786 5787 5788 5788 5789 5789 5789 5790 5790 5790 5790 5790 5790 5790 5790 5789
5748 5750 5751 5756 5756 5758 5759 5760 5762 5763 5765 5766 5767 5769 5770 5771 5772 5774 5775 5775 5776 5777 5777 5778 5779 5779 5780 5781 5782 5783 5784 5785 5785 5785 5786 5786 5786 5786 5786 5786 5786 5786 5785 5785
5741 5743 5745 5749 5750 5751 5753 5754 5756 5757 5758 5759 5760 5762 5764 5765 5766 5768 5769 5770 5770 5771 5772 5773 5774 5775 5776 5776 5778 5778 5779 5780 5781 5781 5781 5781 5781 5781 5781 5781 5781 5781 5781 5780
5734 5736 5738 5743 5744 5745 5747 5748 5750 5751 5752 5753 5754 5756 5758 5759 5760 5761 5763 5764 5765 5766 5767 5768 5769 5770 5771 5772 5773 5774 5775 5775 5776 5776 5776 5776 5776 5776 5775 5776 5776 5775 5775 5775
5728 5729 5732 5735 5737 5739 5742 5744 5744 5744 5745 5747 5748 5751 5752 5753 5754 5755 5756 5758 5759 5761 5762 5763 5764 5765 5765 5766 5768 5769 5770 5770 5771 5771 5771 5771 5771 5771 5770 5770 5770 5770 5770 5769
5721 5723 5728 5728 5730 5733 5735 5736 5737 5738 5739 5741 5742 5744 5745 5746 5747 5749 5750 5752 5753 5755 5756 5757 5758 5759 5760 5761 5762 5763 5764 5765 5765 5766 5766 5766 5765 5765 5765 5765 5765 5764 5764 5763
5716 5719 5720 5722 5723 5725 5726 5728 5730 5731 5733 5735 5736 5737 5739 5740 5741 5742 5744 5745 5747 5748 5750 5751 5752 5753 5754 5755 5756 5757 5758 5759 5759 5760 5760 5759 5759 5759 5759 5759 5759 5759 5758 5758
5709 5711 5713 5715 5716 5718 5720 5721 5723 5725 5726 5728 5730 5731 5732 5734 5735 5736 5737 5739 5740 5742 5743 5745 5746 5747 5748 5749 5749 5750 5751 5752 5752 5753 5753 5753 5753 5753 5753 5753 5752 5752 5751 5751
5703 5705 5706 5708 5710 5712 5713 5715 5716 5718 5720 5721 5723 5724 5726 5728 5729 5730 5731 5732 5734 5735 5737 5738 5739 5740 5741 5742 5743 5743 5744 5745 5746 5746 5746 5746 5746 5746 5746 5746 5745 5744 5744 5743
5697 5699 5700 5702 5703 5705 5706 5708 5710 5711 5713 5714 5716 5718 5719 5721 5722 5723 5724 5726 5727 5728 5730 5730 5731 5732 5733 5735 5736 5736 5737 5738 5739 5739 5739 5739 5739 5739 5739 5739 5738 5738 5737 5737
5691 5693 5694 5696 5697 5699 5700 5701 5703 5705 5707 5708 5710 5711 5713 5714 5715 5716 5718 5719 5720 5721 5722 5723 5724 5725 5726 5727 5728 5729 5729 5730 5731 5731 5731 5731 5731 5731 5731 5731 5730 5730 5730 5729
5686 5687 5688 5689 5691 5693 5694 5695 5697 5698 5700 5702 5703 5705 5706 5707 5708 5709 5711 5712 5713 5714 5715 5717 5717 5718 5719 5719 5720 5721 5722 5723 5723 5723 5724 5724 5724 5724 5724 5723 5723 5722 5722 5722
5681 5682 5684 5685 5686 5687 5688 5690 5691 5692 5694 5695 5697 5698 5699 5701 5702 5703 5704 5705 5706 5707 5709 5710 5711 5711 5712 5712 5713 5714 5715 5715 5716 5716 5716 5716 5716 5716 5716 5716 5716 5715 5715 5714
5677 5678 5680 5681 5681 5682 5683 5684 5686 5687 5688 5689 5691 5692 5693 5695 5696 5697 5698 5699 5700 5701 5702 5703 5703 5704 5705 5706 5706 5706 5707 5708 5708 5708 5709 5708 5708 5708 5708 5708 5708 5708 5707 5707
5674 5675 5676 5677 5677 5678 5679 5680 5681 5682 5683 5684 5686 5687 5688 5689 5690 5691 5692 5692 5693 5694 5694 5695 5696 5697 5697 5698 5699 5699 5700 5700 5701 5701 5701 5701 5701 5701 5701 5701 5701 5701 5701 5700
5671 5672 5673 5673 5674 5675 5675 5676 5676 5678 5678 5679 5680 5681 5682 5683 5684 5684 5685 5685 5686 5686 5687 5688 5689 5690 5690 5691 5692 5692 5693 5694 5694 5695 5695 5695 5695 5695 5695 5695 5695 5695 5694 5694
5667 5668 5669 5669 5670 5670 5671 5672 5673 5673 5674 5674 5675 5676 5677 5677 5678 5678 5678 5678 5678 5679 5680 5681 5682 5683 5683 5684 5685 5686 5686 5687 5687 5688 5688 5688 5688 5688 5688 5689 5689 5689 5688 5688
5663 5664 5665 5665 5666 5666 5667 5668 5668 5669 5669 5670 5671 5671 5671 5672 5672 5672 5672 5672 5672 5672 5672 5673 5674 5675 5676 5677 5678 5679 5679 5680 5680 5681 5681 5682 5682 5682 5683 5683 5683 5683 5682 5682
5659 5660 5661 5661 5662 5662 5663 5663 5664 5664 5665 5666 5666 5666 5667 5667 5667 5667 5667 5666 5666 5666 5666 5667 5668 5669 5670 5670 5671 5672 5672 5673 5674 5674 5675 5675 5676 5676 5676 5676 5677 5676 5676 5676
5655 5656 5657 5657 5658 5658 5658 5659 5659 5660 5660 5660 5661 5661 5662 5662 5662 5662 5662 5661 5661 5661 5661 5661 5662 5663 5664 5664 5665 5665 5666 5667 5668 5668 5668 5669 5669 5669 5670 5670 5670 5670 5670 5669
5652 5652 5653 5653 5654 5654 5654 5655 5655 5655 5655 5656 5656 5656 5657 5657 5657 5658 5658 5657 5657 5656 5656 5657 5657 5658 5658 5659 5660 5660 5661 5661 5662 5662 5662 5662 5662 5663 5663 5663 5663 5663 5663 5663
5648 5648 5649 5649 5649 5650 5650 5651 5651 5651 5651 5652 5652 5652 5653 5653 5653 5653 5653 5653 5652 5652 5652 5653 5653 5653 5654 5654 5655 5655 5655 5655 5655 5655 5655 5655 5655 5656 5656 5656 5656 5656 5656 5655
5644 5644 5644 5645 5645 5645 5646 5646 5646 5647 5647 5647 5648 5648 5648 5648 5648 5648 5648 5647 5647 5647 5647 5648 5648 5649 5649 5649 5649 5649 5649 5649 5649 5648 5648 5648 5648 5648 5648 5649 5649 5649 5649 5648
5640 5640 5640 5640 5641 5641 5641 5642 5642 5642 5642 5643 5643 5643 5643 5643 5643 5642 5642 5642 5642 5642 5642 5643 5643 5643 5644 5644 5644 5643 5643 5642 5642 5642 5642 5642 5642 5642 5641 5641 5641 5641 5641 5641
5636 5636 5636 5636 5636 5637 5637 5637 5637 5638 5638 5638 5638 5638 5638 5638 5638 5637 5637 5637 5637 5637 5637 5637 5638 5638 5638 5638 5638 5637 5637 5636 5636 5636 5636 5635 5635 5635 5634 5634 5634 5634 5633 5633